AME4533 LHBP-EBOS

Flight info

Callsign AME4533
Flight time 1h 49m
Altitude 34000
Route GILEP DCT ZOLKU/M080F380 DCT ABETI DCT RENKA L610 INBED DCT BOMBI DCT ADKUV DCT SOGRI L608 DENUT
Aircraft A310/H-SDFGHIM1RTUWXY/LB1

Departure

Time 2026-04-20 17:25
Airport Budapest Liszt Ferenc International Airport (LHBP)

Arrival

Time 2026-04-20 19:14
Airport Ostend-Bruges International Airport (EBOS)
Time Latitude Longitude Altitude Speed Heading
2026-04-20 17:04 47.43321 19.26768 463 ft 0 kts 222°
2026-04-20 17:18 47.43319 19.26765 463 ft 2 kts 222°
2026-04-20 17:18 47.43296 19.26737 463 ft 6 kts 210°
2026-04-20 17:18 47.43256 19.26753 462 ft 6 kts 132°
2026-04-20 17:18 47.43258 19.26831 461 ft 11 kts 68°
2026-04-20 17:19 47.43286 19.26937 463 ft 12 kts 68°
2026-04-20 17:19 47.43318 19.27052 463 ft 12 kts 65°
2026-04-20 17:19 47.43382 19.27070 464 ft 10 kts 323°
2026-04-20 17:19 47.43445 19.26972 464 ft 15 kts 311°
2026-04-20 17:20 47.43515 19.26858 464 ft 15 kts 313°
2026-04-20 17:20 47.43587 19.26744 463 ft 15 kts 313°
2026-04-20 17:20 47.43660 19.26631 464 ft 15 kts 313°
2026-04-20 17:20 47.43730 19.26515 463 ft 15 kts 310°
2026-04-20 17:21 47.43799 19.26398 464 ft 15 kts 311°
2026-04-20 17:21 47.43871 19.26283 464 ft 15 kts 313°
2026-04-20 17:21 47.43903 19.26150 462 ft 16 kts 244°
2026-04-20 17:21 47.43822 19.26033 462 ft 17 kts 222°
2026-04-20 17:22 47.43736 19.25913 463 ft 17 kts 221°
2026-04-20 17:22 47.43647 19.25793 463 ft 18 kts 223°
2026-04-20 17:22 47.43557 19.25669 463 ft 18 kts 223°
2026-04-20 17:22 47.43464 19.25544 463 ft 18 kts 222°
2026-04-20 17:23 47.43383 19.25435 463 ft 13 kts 221°
2026-04-20 17:23 47.43316 19.25347 463 ft 13 kts 222°
2026-04-20 17:23 47.43264 19.25278 462 ft 10 kts 222°
2026-04-20 17:23 47.43203 19.25196 463 ft 13 kts 223°
2026-04-20 17:24 47.43128 19.25093 463 ft 16 kts 224°
2026-04-20 17:24 47.43093 19.24956 463 ft 16 kts 297°
2026-04-20 17:24 47.43182 19.24809 462 ft 25 kts 312°
2026-04-20 17:24 47.43381 19.24488 458 ft 72 kts 312°
2026-04-20 17:25 47.43862 19.23711 461 ft 131 kts 312°
2026-04-20 17:25 47.44595 19.22616 697 ft 157 kts 316°
2026-04-20 17:25 47.45356 19.21442 1383 ft 160 kts 313°
2026-04-20 17:25 47.46089 19.20219 2197 ft 161 kts 310°
2026-04-20 17:26 47.46832 19.18923 2893 ft 169 kts 310°
2026-04-20 17:26 47.47598 19.17641 3783 ft 164 kts 314°
2026-04-20 17:26 47.48216 19.16174 4316 ft 185 kts 281°
2026-04-20 17:26 47.48023 19.14208 4877 ft 205 kts 255°
2026-04-20 17:27 47.47473 19.12191 5495 ft 221 kts 247°
2026-04-20 17:27 47.46603 19.10237 6282 ft 236 kts 234°
2026-04-20 17:27 47.45468 19.08409 7083 ft 246 kts 240°
2026-04-20 17:27 47.44956 19.06062 7900 ft 244 kts 274°
2026-04-20 17:28 47.45322 19.03615 8878 ft 247 kts 289°
2026-04-20 17:28 47.45807 19.01126 9751 ft 259 kts 287°
2026-04-20 17:28 47.46230 18.98511 10696 ft 264 kts 284°
2026-04-20 17:28 47.46616 18.95757 11254 ft 285 kts 283°
2026-04-20 17:29 47.46997 18.92794 11816 ft 303 kts 282°
2026-04-20 17:29 47.47377 18.89661 12493 ft 316 kts 281°
2026-04-20 17:29 47.47771 18.86408 13202 ft 328 kts 281°
2026-04-20 17:29 47.48156 18.83036 13901 ft 339 kts 281°
2026-04-20 17:30 47.48553 18.79530 14391 ft 354 kts 280°
2026-04-20 17:30 47.48969 18.75884 14927 ft 366 kts 281°
2026-04-20 17:30 47.49400 18.72151 15663 ft 371 kts 280°
2026-04-20 17:30 47.49837 18.68398 16488 ft 373 kts 280°
2026-04-20 17:31 47.50285 18.64606 17306 ft 376 kts 280°
2026-04-20 17:31 47.50742 18.60798 18123 ft 378 kts 280°
2026-04-20 17:31 47.51184 18.56959 18829 ft 381 kts 279°
2026-04-20 17:31 47.51613 18.53094 19528 ft 383 kts 279°
2026-04-20 17:32 47.52053 18.49199 20203 ft 385 kts 279°
2026-04-20 17:32 47.52498 18.45286 20866 ft 388 kts 279°
2026-04-20 17:32 47.52939 18.41344 21562 ft 391 kts 279°
2026-04-20 17:32 47.53393 18.37378 22241 ft 393 kts 279°
2026-04-20 17:33 47.53841 18.33380 22907 ft 396 kts 279°
2026-04-20 17:33 47.54290 18.29342 23560 ft 400 kts 279°
2026-04-20 17:33 47.54744 18.25290 24129 ft 402 kts 280°
2026-04-20 17:33 47.55211 18.21202 24698 ft 404 kts 279°
2026-04-20 17:34 47.55674 18.17104 25297 ft 405 kts 280°
2026-04-20 17:34 47.56135 18.12986 25868 ft 407 kts 280°
2026-04-20 17:34 47.56603 18.08851 26454 ft 409 kts 280°
2026-04-20 17:34 47.57064 18.04697 27100 ft 409 kts 280°
2026-04-20 17:35 47.57531 18.00548 27737 ft 409 kts 280°
2026-04-20 17:35 47.57988 17.96424 28608 ft 405 kts 280°
2026-04-20 17:35 47.58437 17.92344 29467 ft 400 kts 280°
2026-04-20 17:35 47.58873 17.88309 30291 ft 396 kts 280°
2026-04-20 17:36 47.59300 17.84302 30889 ft 394 kts 280°
2026-04-20 17:36 47.59725 17.80295 31410 ft 395 kts 280°
2026-04-20 17:36 47.60150 17.76276 31917 ft 396 kts 280°
2026-04-20 17:36 47.60576 17.72251 32351 ft 398 kts 280°
2026-04-20 17:37 47.61007 17.68190 32613 ft 400 kts 280°
2026-04-20 17:37 47.61437 17.64138 32872 ft 399 kts 280°
2026-04-20 17:37 47.61866 17.60082 33137 ft 399 kts 280°
2026-04-20 17:37 47.62294 17.56041 33403 ft 399 kts 280°
2026-04-20 17:38 47.62724 17.51982 33686 ft 399 kts 280°
2026-04-20 17:38 47.63154 17.47928 33946 ft 399 kts 280°
2026-04-20 17:38 47.63584 17.43865 34182 ft 400 kts 280°
2026-04-20 17:38 47.64005 17.39785 34405 ft 401 kts 280°
2026-04-20 17:39 47.64425 17.35701 34638 ft 402 kts 280°
2026-04-20 17:39 47.64848 17.31606 34873 ft 403 kts 280°
2026-04-20 17:39 47.65267 17.27498 35106 ft 404 kts 280°
2026-04-20 17:39 47.65687 17.23377 35353 ft 406 kts 280°
2026-04-20 17:40 47.66107 17.19243 35587 ft 407 kts 280°
2026-04-20 17:40 47.66528 17.15088 35840 ft 408 kts 280°
2026-04-20 17:40 47.66945 17.10927 36074 ft 409 kts 280°
2026-04-20 17:40 47.67368 17.06754 36322 ft 411 kts 280°
2026-04-20 17:41 47.67784 17.02567 36570 ft 412 kts 280°
2026-04-20 17:41 47.68432 16.98448 36830 ft 411 kts 289°
2026-04-20 17:41 47.69477 16.94500 37086 ft 412 kts 294°
2026-04-20 17:41 47.70644 16.90628 37345 ft 414 kts 294°
2026-04-20 17:42 47.71807 16.86718 37609 ft 415 kts 294°
2026-04-20 17:42 47.72936 16.82774 37837 ft 417 kts 292°
2026-04-20 17:42 47.74033 16.78786 37943 ft 418 kts 292°
2026-04-20 17:43 47.76232 16.70777 37975 ft 420 kts 292°
2026-04-20 17:43 47.78434 16.62749 37997 ft 421 kts 292°
2026-04-20 17:44 47.80639 16.54709 37996 ft 420 kts 292°
2026-04-20 17:44 47.82834 16.46671 37989 ft 420 kts 292°
2026-04-20 17:45 47.85020 16.38631 37987 ft 420 kts 292°
2026-04-20 17:45 47.87202 16.30593 37987 ft 420 kts 292°
2026-04-20 17:46 47.89375 16.22546 37987 ft 419 kts 292°
2026-04-20 17:46 47.91543 16.14506 37995 ft 419 kts 292°
2026-04-20 17:47 47.93704 16.06461 37995 ft 419 kts 292°
2026-04-20 17:47 47.95857 15.98413 37994 ft 418 kts 292°
2026-04-20 17:48 47.98007 15.90376 38002 ft 418 kts 292°
2026-04-20 17:48 48.00158 15.82338 38019 ft 418 kts 292°
2026-04-20 17:49 48.02316 15.74289 38011 ft 418 kts 292°
2026-04-20 17:49 48.04445 15.66226 38007 ft 418 kts 292°
2026-04-20 17:50 48.06567 15.58142 38018 ft 419 kts 291°
2026-04-20 17:50 48.08685 15.50047 38016 ft 419 kts 291°
2026-04-20 17:51 48.10800 15.41939 38014 ft 419 kts 291°
2026-04-20 17:51 48.12910 15.33819 38014 ft 420 kts 291°
2026-04-20 17:52 48.15020 15.25680 38009 ft 420 kts 291°
2026-04-20 17:52 48.17123 15.17540 38013 ft 420 kts 291°
2026-04-20 17:53 48.19222 15.09380 38017 ft 420 kts 291°
2026-04-20 17:53 48.21312 15.01220 38007 ft 421 kts 291°
2026-04-20 17:54 48.23403 14.93047 38019 ft 421 kts 291°
2026-04-20 17:54 48.25493 14.84862 38020 ft 421 kts 291°
2026-04-20 17:55 48.27564 14.76665 38015 ft 421 kts 291°
2026-04-20 17:55 48.29640 14.68448 38013 ft 422 kts 291°
2026-04-20 17:56 48.31715 14.60218 38021 ft 422 kts 291°
2026-04-20 17:56 48.33788 14.51976 38022 ft 423 kts 291°
2026-04-20 17:57 48.35854 14.43708 38019 ft 423 kts 291°
2026-04-20 17:57 48.37911 14.35441 38018 ft 423 kts 291°
2026-04-20 17:58 48.39968 14.27152 38016 ft 423 kts 291°
2026-04-20 17:58 48.42023 14.18861 38017 ft 423 kts 291°
2026-04-20 17:59 48.44069 14.10574 38021 ft 423 kts 291°
2026-04-20 17:59 48.46113 14.02285 38020 ft 423 kts 291°
2026-04-20 18:00 48.48157 13.93989 38026 ft 423 kts 291°
2026-04-20 18:00 48.50196 13.85692 38030 ft 423 kts 290°
2026-04-20 18:01 48.52236 13.77375 38039 ft 424 kts 290°
2026-04-20 18:01 48.54250 13.69041 38034 ft 424 kts 290°
2026-04-20 18:02 48.56259 13.60696 38038 ft 424 kts 290°
2026-04-20 18:02 48.58264 13.52347 38035 ft 424 kts 290°
2026-04-20 18:03 48.60145 13.43915 38046 ft 425 kts 289°
2026-04-20 18:03 48.62097 13.35514 38042 ft 425 kts 290°
2026-04-20 18:04 48.64113 13.27140 38039 ft 425 kts 290°
2026-04-20 18:04 48.66133 13.18748 38043 ft 425 kts 290°
2026-04-20 18:05 48.69145 13.06152 38046 ft 426 kts 290°
2026-04-20 18:05 48.71122 12.97715 38042 ft 426 kts 290°
2026-04-20 18:06 48.73119 12.89290 38049 ft 426 kts 290°
2026-04-20 18:06 48.75103 12.80840 38046 ft 427 kts 290°
2026-04-20 18:07 48.77080 12.72386 38051 ft 427 kts 290°
2026-04-20 18:07 48.79045 12.63908 38053 ft 427 kts 290°
2026-04-20 18:08 48.80983 12.55420 38053 ft 427 kts 290°
2026-04-20 18:08 48.82954 12.46943 38057 ft 427 kts 290°
2026-04-20 18:09 48.84904 12.38452 38054 ft 427 kts 290°
2026-04-20 18:09 48.86854 12.29950 38057 ft 427 kts 290°
2026-04-20 18:10 48.88877 12.21484 38063 ft 426 kts 296°
2026-04-20 18:10 48.91785 12.13666 38062 ft 426 kts 301°
2026-04-20 18:11 48.94753 12.05886 38064 ft 426 kts 299°
2026-04-20 18:11 48.97616 11.98000 38071 ft 427 kts 299°
2026-04-20 18:12 49.00468 11.90104 38074 ft 427 kts 299°
2026-04-20 18:12 49.03318 11.82193 38078 ft 427 kts 299°
2026-04-20 18:13 49.06162 11.74265 38076 ft 427 kts 299°
2026-04-20 18:13 49.09003 11.66334 38080 ft 427 kts 298°
2026-04-20 18:14 49.11838 11.58384 38086 ft 427 kts 298°
2026-04-20 18:14 49.14665 11.50427 38084 ft 427 kts 298°
2026-04-20 18:15 49.17494 11.42457 38089 ft 427 kts 298°
2026-04-20 18:15 49.20311 11.34481 38086 ft 427 kts 298°
2026-04-20 18:16 49.23125 11.26499 38097 ft 427 kts 298°
2026-04-20 18:16 49.25934 11.18506 38099 ft 427 kts 298°
2026-04-20 18:17 49.28742 11.10498 38105 ft 427 kts 298°
2026-04-20 18:17 49.31537 11.02484 38102 ft 428 kts 298°
2026-04-20 18:18 49.34328 10.94454 38109 ft 428 kts 298°
2026-04-20 18:18 49.37117 10.86410 38104 ft 428 kts 298°
2026-04-20 18:19 49.39902 10.78359 38105 ft 428 kts 298°
2026-04-20 18:19 49.42682 10.70285 38104 ft 428 kts 298°
2026-04-20 18:20 49.45456 10.62209 38109 ft 428 kts 298°
2026-04-20 18:20 49.48226 10.54124 38101 ft 428 kts 298°
2026-04-20 18:21 49.50995 10.46021 38103 ft 429 kts 298°
2026-04-20 18:21 49.53759 10.37917 38099 ft 429 kts 298°
2026-04-20 18:22 49.56523 10.29802 38103 ft 429 kts 298°
2026-04-20 18:22 49.59289 10.21671 38105 ft 429 kts 298°
2026-04-20 18:23 49.62053 10.13536 38108 ft 429 kts 298°
2026-04-20 18:23 49.64813 10.05391 38110 ft 429 kts 297°
2026-04-20 18:24 49.67551 9.97210 38112 ft 430 kts 297°
2026-04-20 18:24 49.70284 9.89018 38108 ft 430 kts 297°
2026-04-20 18:25 49.73013 9.80814 38113 ft 430 kts 297°
2026-04-20 18:25 49.75742 9.72590 38113 ft 431 kts 297°
2026-04-20 18:26 49.78464 9.64364 38115 ft 431 kts 297°
2026-04-20 18:26 49.81180 9.56127 38114 ft 431 kts 297°
2026-04-20 18:27 49.83889 9.47871 38119 ft 431 kts 297°
2026-04-20 18:27 49.86593 9.39603 38121 ft 431 kts 297°
2026-04-20 18:28 49.89291 9.31333 38122 ft 431 kts 297°
2026-04-20 18:28 49.91986 9.23048 38126 ft 431 kts 297°
2026-04-20 18:29 49.94681 9.14746 38124 ft 431 kts 297°
2026-04-20 18:29 49.97365 9.06441 38132 ft 431 kts 297°
2026-04-20 18:30 50.00038 8.98114 38126 ft 432 kts 297°
2026-04-20 18:30 50.02715 8.89778 38126 ft 432 kts 297°
2026-04-20 18:31 50.05389 8.81422 38130 ft 432 kts 296°
2026-04-20 18:31 50.07547 8.72718 38126 ft 433 kts 289°
2026-04-20 18:32 50.09485 8.63859 38130 ft 433 kts 290°
2026-04-20 18:32 50.11552 8.55079 38127 ft 433 kts 291°
2026-04-20 18:33 50.13612 8.46290 38136 ft 433 kts 291°
2026-04-20 18:33 50.15669 8.37486 38139 ft 433 kts 291°
2026-04-20 18:34 50.17719 8.28681 38134 ft 433 kts 290°
2026-04-20 18:34 50.19763 8.19866 38136 ft 433 kts 290°
2026-04-20 18:35 50.21813 8.11040 38148 ft 433 kts 290°
2026-04-20 18:35 50.23848 8.02198 38150 ft 434 kts 290°
2026-04-20 18:36 50.25876 7.93356 38155 ft 434 kts 290°
2026-04-20 18:36 50.27907 7.84492 38152 ft 434 kts 290°
2026-04-20 18:37 50.29934 7.75623 38155 ft 434 kts 290°
2026-04-20 18:37 50.31961 7.66738 38149 ft 434 kts 290°
2026-04-20 18:38 50.33985 7.57856 38150 ft 434 kts 290°
2026-04-20 18:38 50.35984 7.48940 38149 ft 435 kts 290°
2026-04-20 18:39 50.37974 7.40022 38144 ft 435 kts 290°
2026-04-20 18:39 50.39959 7.31098 38145 ft 435 kts 290°
2026-04-20 18:40 50.41937 7.22162 38139 ft 435 kts 290°
2026-04-20 18:40 50.43913 7.13210 38137 ft 435 kts 290°
2026-04-20 18:41 50.45879 7.04258 38141 ft 435 kts 289°
2026-04-20 18:41 50.47870 6.95321 38153 ft 435 kts 291°
2026-04-20 18:42 50.50054 6.86489 38147 ft 434 kts 292°
2026-04-20 18:42 50.52268 6.77681 38148 ft 434 kts 292°
2026-04-20 18:43 50.54455 6.68846 38159 ft 434 kts 291°
2026-04-20 18:43 50.56619 6.60001 38164 ft 435 kts 291°
2026-04-20 18:44 50.58775 6.51139 38165 ft 435 kts 291°
2026-04-20 18:44 50.60926 6.42255 38166 ft 435 kts 291°
2026-04-20 18:45 50.62603 6.35312 38163 ft 436 kts 291°
2026-04-20 18:45 50.63679 6.30854 38037 ft 438 kts 291°
2026-04-20 18:45 50.64754 6.26384 37768 ft 437 kts 291°
2026-04-20 18:46 50.65827 6.21911 37511 ft 436 kts 291°
2026-04-20 18:46 50.66897 6.17452 37250 ft 436 kts 291°
2026-04-20 18:46 50.67961 6.12995 36992 ft 436 kts 291°
2026-04-20 18:46 50.69026 6.08538 36743 ft 435 kts 291°
2026-04-20 18:47 50.70093 6.04075 36503 ft 435 kts 291°
2026-04-20 18:47 50.71148 5.99615 36255 ft 435 kts 291°
2026-04-20 18:47 50.72209 5.95161 36005 ft 435 kts 291°
2026-04-20 18:47 50.73259 5.90700 35760 ft 434 kts 291°
2026-04-20 18:48 50.74317 5.86246 35520 ft 434 kts 291°
2026-04-20 18:48 50.75365 5.81788 35279 ft 434 kts 291°
2026-04-20 18:48 50.76415 5.77324 35045 ft 434 kts 291°
2026-04-20 18:48 50.77463 5.72869 34822 ft 434 kts 291°
2026-04-20 18:49 50.78509 5.68414 34586 ft 433 kts 291°
2026-04-20 18:49 50.79546 5.63956 34350 ft 433 kts 291°
2026-04-20 18:49 50.80586 5.59501 34109 ft 433 kts 291°
2026-04-20 18:49 50.81625 5.55047 33833 ft 433 kts 291°
2026-04-20 18:50 50.82659 5.50580 33561 ft 433 kts 291°
2026-04-20 18:50 50.83694 5.46121 33292 ft 433 kts 291°
2026-04-20 18:50 50.84729 5.41654 33031 ft 433 kts 291°
2026-04-20 18:50 50.85758 5.37192 32765 ft 433 kts 290°
2026-04-20 18:51 50.86786 5.32721 32502 ft 433 kts 290°
2026-04-20 18:51 50.87817 5.28240 32245 ft 434 kts 290°
2026-04-20 18:51 50.88845 5.23763 31993 ft 434 kts 290°
2026-04-20 18:51 50.89871 5.19282 31738 ft 434 kts 290°
2026-04-20 18:52 50.90897 5.14798 31482 ft 434 kts 290°
2026-04-20 18:52 50.91925 5.10303 31255 ft 434 kts 290°
2026-04-20 18:52 50.92949 5.05817 30999 ft 434 kts 290°
2026-04-20 18:52 50.93973 5.01322 30752 ft 434 kts 290°
2026-04-20 18:53 50.94996 4.96828 30519 ft 434 kts 290°
2026-04-20 18:53 50.96019 4.92332 30277 ft 435 kts 290°
2026-04-20 18:53 50.97041 4.87831 29985 ft 435 kts 290°
2026-04-20 18:53 50.98063 4.83325 29694 ft 436 kts 290°
2026-04-20 18:54 50.99085 4.78806 29415 ft 436 kts 290°
2026-04-20 18:54 51.00112 4.74268 29140 ft 438 kts 290°
2026-04-20 18:54 51.01139 4.69725 28854 ft 439 kts 290°
2026-04-20 18:54 51.02152 4.65159 28582 ft 440 kts 290°
2026-04-20 18:55 51.03175 4.60583 28311 ft 441 kts 290°
2026-04-20 18:55 51.04188 4.55986 28044 ft 443 kts 290°
2026-04-20 18:55 51.05215 4.51381 27780 ft 444 kts 290°
2026-04-20 18:55 51.06230 4.46746 27520 ft 445 kts 290°
2026-04-20 18:56 51.07260 4.42115 27267 ft 446 kts 290°
2026-04-20 18:56 51.08275 4.37459 27005 ft 447 kts 290°
2026-04-20 18:56 51.09304 4.32799 26772 ft 448 kts 290°
2026-04-20 18:56 51.10329 4.28114 26513 ft 449 kts 290°
2026-04-20 18:57 51.11351 4.23421 26271 ft 450 kts 290°
2026-04-20 18:57 51.12383 4.18721 26030 ft 451 kts 290°
2026-04-20 18:57 51.13401 4.14001 25793 ft 452 kts 290°
2026-04-20 18:57 51.14431 4.09281 25549 ft 450 kts 290°
2026-04-20 18:58 51.15424 4.04685 25294 ft 430 kts 290°
2026-04-20 18:58 51.16377 4.00291 25040 ft 411 kts 289°
2026-04-20 18:58 51.17284 3.96088 24782 ft 394 kts 289°
2026-04-20 18:58 51.18160 3.92053 24493 ft 380 kts 290°
2026-04-20 18:59 51.18997 3.88134 24130 ft 369 kts 290°
2026-04-20 18:59 51.19824 3.84303 23636 ft 363 kts 290°
2026-04-20 18:59 51.20637 3.80515 22922 ft 362 kts 290°
2026-04-20 18:59 51.21456 3.76739 22221 ft 359 kts 290°
2026-04-20 19:00 51.22175 3.72944 21548 ft 358 kts 285°
2026-04-20 19:00 51.22714 3.69094 20867 ft 355 kts 283°
2026-04-20 19:00 51.23208 3.65258 20231 ft 353 kts 283°
2026-04-20 19:00 51.23688 3.61448 19599 ft 350 kts 283°
2026-04-20 19:01 51.24156 3.57665 18982 ft 347 kts 283°
2026-04-20 19:01 51.24616 3.53907 18348 ft 344 kts 283°
2026-04-20 19:01 51.25065 3.50179 17637 ft 341 kts 283°
2026-04-20 19:01 51.25506 3.46485 16975 ft 338 kts 283°
2026-04-20 19:02 51.25940 3.42820 16309 ft 335 kts 283°
2026-04-20 19:02 51.26365 3.39187 15659 ft 332 kts 283°
2026-04-20 19:02 51.26784 3.35579 15022 ft 329 kts 283°
2026-04-20 19:02 51.27196 3.32010 14398 ft 326 kts 283°
2026-04-20 19:03 51.27601 3.28472 13786 ft 323 kts 283°
2026-04-20 19:03 51.28003 3.24958 13083 ft 320 kts 283°
2026-04-20 19:03 51.28399 3.21479 12418 ft 318 kts 283°
2026-04-20 19:03 51.28787 3.18036 11766 ft 315 kts 283°
2026-04-20 19:04 51.29168 3.14607 11147 ft 312 kts 283°
2026-04-20 19:04 51.29537 3.11251 10775 ft 302 kts 283°
2026-04-20 19:04 51.29884 3.08040 10651 ft 286 kts 283°
2026-04-20 19:04 51.30209 3.04958 10259 ft 281 kts 283°
2026-04-20 19:05 51.30529 3.01900 9750 ft 279 kts 283°
2026-04-20 19:05 51.30847 2.98858 9225 ft 277 kts 283°
2026-04-20 19:05 51.31164 2.95839 8703 ft 276 kts 283°
2026-04-20 19:05 51.31479 2.92831 8189 ft 274 kts 283°
2026-04-20 19:06 51.31641 2.89808 7682 ft 276 kts 269°
2026-04-20 19:06 51.31364 2.86768 7169 ft 278 kts 263°
2026-04-20 19:06 51.31020 2.83745 6688 ft 276 kts 263°
2026-04-20 19:06 51.30674 2.80734 6159 ft 275 kts 262°
2026-04-20 19:07 51.30332 2.77745 5738 ft 271 kts 262°
2026-04-20 19:07 51.29998 2.74824 5393 ft 265 kts 263°
2026-04-20 19:07 51.29670 2.71963 5064 ft 259 kts 263°
2026-04-20 19:07 51.29343 2.69161 4668 ft 256 kts 263°
2026-04-20 19:08 51.29019 2.66375 4270 ft 254 kts 262°
2026-04-20 19:08 51.26987 2.62007 3510 ft 255 kts 207°
2026-04-20 19:08 51.25390 2.60828 3146 ft 252 kts 202°
2026-04-20 19:09 51.23829 2.59737 3036 ft 239 kts 203°
2026-04-20 19:09 51.22352 2.58708 3007 ft 228 kts 202°
2026-04-20 19:09 51.20843 2.58089 2996 ft 223 kts 175°
2026-04-20 19:09 51.19408 2.58788 2914 ft 216 kts 140°
2026-04-20 19:10 51.18460 2.60531 2757 ft 207 kts 115°
2026-04-20 19:10 51.17782 2.62564 2537 ft 208 kts 112°
2026-04-20 19:10 51.17124 2.64603 2327 ft 207 kts 112°
2026-04-20 19:10 51.16756 2.66732 2149 ft 195 kts 81°
2026-04-20 19:11 51.17335 2.68517 2053 ft 183 kts 34°
2026-04-20 19:11 51.18451 2.69431 2017 ft 178 kts 25°
2026-04-20 19:11 51.19447 2.70566 1605 ft 183 kts 51°
2026-04-20 19:11 51.19844 2.72485 1435 ft 187 kts 89°
2026-04-20 19:12 51.19570 2.74514 1290 ft 191 kts 105°
2026-04-20 19:12 51.19078 2.76432 1268 ft 177 kts 110°
2026-04-20 19:12 51.18656 2.78048 1249 ft 143 kts 98°
2026-04-20 19:12 51.18630 2.79579 771 ft 136 kts 74°
2026-04-20 19:13 51.18884 2.80972 587 ft 127 kts 66°
2026-04-20 19:13 51.19121 2.82308 419 ft 123 kts 70°
2026-04-20 19:13 51.19326 2.83594 283 ft 119 kts 69°
2026-04-20 19:13 51.19551 2.84855 201 ft 118 kts 70°
2026-04-20 19:14 51.19775 2.86094 50 ft 112 kts 71°
2026-04-20 19:14 51.19944 2.87180 26 ft 87 kts 79°
2026-04-20 19:14 51.20061 2.87981 22 ft 48 kts 77°
2026-04-20 19:14 51.20107 2.88275 20 ft 11 kts 73°
2026-04-20 19:15 51.20118 2.88306 24 ft 2 kts 52°
2026-04-20 19:15 51.20126 2.88368 25 ft 11 kts 81°
2026-04-20 19:15 51.20147 2.88541 23 ft 19 kts 76°
2026-04-20 19:15 51.20182 2.88760 24 ft 23 kts 79°
2026-04-20 19:16 51.20220 2.89033 26 ft 26 kts 76°
2026-04-20 19:16 51.20270 2.89341 26 ft 30 kts 76°
2026-04-20 19:16 51.20314 2.89661 23 ft 29 kts 74°
2026-04-20 19:16 51.20235 2.89863 24 ft 26 kts 190°
2026-04-20 19:17 51.20099 2.89673 24 ft 29 kts 228°
2026-04-20 19:17 51.19941 2.89525 24 ft 22 kts 189°
2026-04-20 19:17 51.19852 2.89603 23 ft 11 kts 94°
2026-04-20 19:17 51.19849 2.89646 25 ft 0 kts 98°